GW1020 Weather Reports


time (UTC)temp
C
wind
direction
speed
KPH
gust
KPH
rain 1hr
cm
rain 24hr
cm
rain mn
cm
humidity
%
barometer
mb
20260507140204 13 333 8.0 16.1 0.00 0.81 0.46 73 1015.4
20260507135204 14 317 8.0 17.7 0.00 0.81 0.46 73 1015.4
20260507134705 14 318 9.7 17.7 0.00 0.84 0.46 74 1015.5
20260507133704 14 316 4.8 12.9 0.00 0.84 0.46 72 1015.4
20260507133204 15 306 3.2 11.3 0.00 0.84 0.46 74 1015.4
20260507132704 14 355 4.8 11.3 0.00 0.84 0.46 77 1015.4
20260507131705 12 327 4.8 9.7 0.00 0.84 0.46 78 1015.4
20260507131205 12 317 4.8 9.7 0.00 0.84 0.46 76 1015.3
20260507130727 12 297 3.2 11.3 0.00 0.84 0.46 79 1015.4
20260507130204 12 298 4.8 12.9 0.00 0.84 0.46 78 1015.3
20260507124705 12 269 6.4 14.5 0.00 0.84 0.46 77 1015.4
20260507124205 12 325 8.0 14.5 0.00 0.84 0.46 78 1015.3
20260507123705 12 292 6.4 14.5 0.00 0.84 0.46 78 1015.3
20260507123205 12 315 4.8 9.7 0.00 0.84 0.46 79 1015.3
20260507122706 12 292 6.4 9.7 0.00 0.84 0.46 78 1015.3
20260507122205 12 298 4.8 16.1 0.00 0.84 0.46 79 1015.2
20260507121704 12 316 6.4 16.1 0.00 0.86 0.46 81 1015.1
20260507120705 11 315 8.0 14.5 0.00 0.86 0.46 79 1015.1
20260507120205 12 305 6.4 14.5 0.00 0.86 0.46 79 1015.0
20260507115705 12 327 6.4 14.5 0.00 0.86 0.46 79 1015.0
20260507115205 12 355 6.4 14.5 0.00 0.86 0.46 78 1015.0
20260507114705 12 310 6.4 17.7 0.00 0.86 0.46 79 1015.0
20260507114205 12 291 6.4 17.7 0.00 0.86 0.46 78 1015.1
20260507113705 12 323 8.0 17.7 0.00 0.86 0.46 79 1015.0
20260507113205 12 309 9.7 17.7 0.00 0.86 0.46 78 1015.0
20260507112705 12 309 9.7 16.1 0.00 0.86 0.46 78 1015.0
20260507112205 12 321 8.0 16.1 0.00 0.86 0.46 77 1015.0
20260507111705 12 348 6.4 16.1 0.00 0.86 0.46 78 1015.0
20260507111205 12 328 8.0 16.1 0.00 0.86 0.46 78 1015.0
20260507110204 12 329 6.4 17.7 0.00 0.86 0.46 77 1015.0
20260507105705 12 346 8.0 17.7 0.00 0.86 0.46 76 1014.9
20260507105204 13 309 8.0 20.9 0.00 0.86 0.46 75 1014.9
20260507104705 13 350 8.0 20.9 0.00 0.86 0.46 81 1014.9
20260507104204 12 196 11.3 20.9 0.00 0.86 0.46 80 1014.9
20260507103705 12 306 11.3 20.9 0.00 0.86 0.46 76 1015.1
20260507103205 12 304 9.7 19.3 0.00 0.86 0.46 79 1015.0
20260507102704 12 202 8.0 19.3 0.00 0.86 0.46 80 1015.0
20260507102205 11 294 9.7 19.3 0.00 0.86 0.46 80 1015.0
20260507101704 11 277 9.7 19.3 0.00 0.86 0.46 81 1014.9
20260507100705 11 296 11.3 20.9 0.00 0.86 0.46 81 1014.9
20260507100205 11 271 11.3 20.9 0.00 0.86 0.46 80 1014.9
20260507094705 11 221 9.7 20.9 0.00 0.86 0.46 84 1014.9
20260507094205 11 210 9.7 20.9 0.00 0.86 0.46 86 1014.9
20260507093205 10 294 9.7 20.9 0.00 0.86 0.46 87 1014.7
20260507092705 11 201 9.7 20.9 0.00 0.86 0.46 86 1014.7
20260507092205 11 249 9.7 20.9 0.00 0.86 0.46 88 1014.7
20260507091725 11 210 8.0 16.1 0.00 0.86 0.46 89 1014.6
20260507091222 11 284 8.0 12.9 0.00 0.86 0.46 91 1014.6
20260507090705 10 303 8.0 14.5 0.03 0.86 0.46 90 1014.5
20260507090205 10 278 8.0 14.5 0.03 0.86 0.46 91 1014.5
20260507085705 10 322 6.4 14.5 0.03 0.86 0.46 91 1014.5
20260507085204 10 329 4.8 9.7 0.03 0.86 0.46 92 1014.5
20260507084704 10 316 3.2 8.0 0.03 0.86 0.46 92 1014.4
20260507082704 9 331 3.2 8.0 0.03 0.86 0.46 92 1014.2
20260507082204 9 318 3.2 11.3 0.03 0.86 0.46 93 1014.3
20260507081705 9 317 4.8 11.3 0.03 0.86 0.46 93 1014.2
20260507081205 9 319 4.8 12.9 0.00 0.84 0.43 93 1014.2
20260507080205 8 292 6.4 12.9 0.00 0.84 0.43 92 1014.1
20260507075704 8 291 4.8 11.3 0.00 0.84 0.43 92 1014.1
20260507075204 8 299 4.8 11.3 0.00 0.84 0.43 92 1014.1
20260507074705 9 277 3.2 9.7 0.00 0.84 0.43 93 1014.0
20260507074205 9 310 4.8 9.7 0.00 0.84 0.43 93 1013.9
20260507073704 9 310 4.8 11.3 0.00 0.84 0.43 93 1013.9
20260507073204 9 311 4.8 11.3 0.00 0.84 0.43 92 1013.8
20260507072705 8 311 6.4 12.9 0.03 0.84 0.43 92 1013.7
20260507072204 8 314 6.4 12.9 0.05 0.84 0.43 92 1013.7
20260507071704 8 311 8.0 14.5 0.05 0.84 0.43 92 1013.6
20260507071204 8 287 8.0 14.5 0.05 0.84 0.43 92 1013.6
20260507070704 8 302 6.4 14.5 0.05 0.84 0.43 93 1013.6
20260507070205 8 300 6.4 14.5 0.08 0.84 0.43 93 1013.5
20260507065704 8 306 8.0 14.5 0.08 0.84 0.43 93 1013.4
20260507064704 8 304 8.0 14.5 0.08 0.84 0.43 93 1013.3
20260507064205 8 292 6.4 12.9 0.10 0.84 0.43 93 1013.3
20260507063705 8 296 4.8 11.3 0.10 0.84 0.43 93 1013.3
20260507063204 8 291 4.8 11.3 0.10 0.81 0.43 93 1013.1
20260507062705 8 302 6.4 11.3 0.10 0.81 0.43 93 1013.1
20260507062204 8 269 6.4 11.3 0.08 0.79 0.41 93 1013.0
20260507061704 8 294 6.4 11.3 0.10 0.79 0.41 93 1013.0
20260507061204 8 304 6.4 9.7 0.10 0.79 0.38 93 1013.0
20260507060705 8 328 4.8 11.3 0.10 0.79 0.38 93 1012.8
20260507060204 8 269 4.8 11.3 0.08 0.76 0.36 92 1012.7
20260507055704 8 314 4.8 11.3 0.08 0.76 0.36 93 1012.8
20260507055205 9 296 4.8 11.3 0.10 0.76 0.36 93 1012.7
20260507054721 8 275 6.4 14.5 0.10 0.76 0.36 93 1012.6
20260507054204 8 275 6.4 14.5 0.10 0.74 0.33 93 1012.6
20260507053704 9 250 4.8 14.5 0.10 0.74 0.33 93 1012.5
20260507053204 9 283 6.4 11.3 0.08 0.71 0.33 93 1012.5
20260507051205 8 298 8.0 16.1 0.08 0.71 0.30 92 1012.3
20260507050705 8 292 8.0 16.1 0.05 0.69 0.28 92 1012.2
20260507050205 9 287 8.0 16.1 0.05 0.69 0.28 92 1012.1
20260507045704 9 287 8.0 16.1 0.05 0.66 0.25 93 1012.0
20260507044704 9 213 4.8 11.3 0.05 0.66 0.25 93 1011.9
20260507044205 9 250 6.4 11.3 0.05 0.64 0.23 93 1011.9
20260507043705 9 219 6.4 16.1 0.05 0.64 0.23 93 1011.8
20260507043204 9 221 6.4 16.1 0.05 0.64 0.23 93 1011.7
20260507042704 9 202 6.4 16.1 0.05 0.64 0.23 93 1011.7
20260507042205 9 246 6.4 14.5 0.05 0.64 0.23 93 1011.6
20260507041205 9 261 6.4 14.5 0.05 0.61 0.23 92 1011.5
20260507040705 9 227 4.8 12.9 0.05 0.61 0.23 93 1011.4
20260507040222 9 237 6.4 12.9 0.05 0.61 0.23 92 1011.4
20260507035705 9 248 6.4 12.9 0.05 0.61 0.23 92 1011.4
20260507035206 9 245 6.4 16.1 0.05 0.61 0.23 92 1011.3
20260507034705 9 219 6.4 16.1 0.05 0.61 0.23 92 1011.3
20260507034205 9 273 8.0 17.7 0.05 0.61 0.20 92 1011.2
20260507033705 9 259 8.0 17.7 0.05 0.61 0.20 92 1011.2
20260507032705 9 240 11.3 22.5 0.05 0.61 0.20 92 1011.0
20260507032205 9 239 11.3 22.5 0.05 0.61 0.20 93 1011.0
20260507031705 9 203 9.7 22.5 0.05 0.61 0.18 92 1010.9
20260507031205 9 214 6.4 12.9 0.03 0.58 0.18 93 1010.8
20260507030705 9 204 4.8 11.3 0.03 0.58 0.18 93 1010.8
20260507030205 9 207 4.8 11.3 0.03 0.58 0.18 93 1010.7
20260507025705 9 212 4.8 11.3 0.03 0.58 0.18 93 1010.7
20260507025205 9 214 4.8 11.3 0.03 0.58 0.18 93 1010.7
20260507024704 9 185 3.2 9.7 0.03 0.56 0.15 93 1010.6
20260507024205 9 219 3.2 9.7 0.03 0.56 0.15 93 1010.6
20260507023704 9 197 3.2 11.3 0.05 0.56 0.15 93 1010.6
20260507023231 9 194 3.2 11.3 0.05 0.56 0.15 93 1010.6
20260507022704 9 196 3.2 11.3 0.05 0.56 0.15 93 1010.6
20260507021205 9 204 3.2 9.7 0.08 0.56 0.15 93 1010.4
20260507020705 9 205 3.2 8.0 0.10 0.56 0.15 93 1010.4
20260507015704 9 185 1.6 8.0 0.13 0.56 0.15 93 1010.3
20260507015204 9 185 3.2 8.0 0.10 0.53 0.15 92 1010.3
20260507013705 9 227 1.6 4.8 0.08 0.51 0.13 92 1010.3
20260507013205 9 227 0.0 4.8 0.08 0.51 0.13 92 1010.2
20260507012705 9 227 1.6 4.8 0.08 0.51 0.13 92 1010.2
20260507011705 9 227 0.0 3.2 0.05 0.48 0.08 92 1010.2
20260507011205 9 227 0.0 3.2 0.05 0.48 0.08 92 1010.2
20260507010705 9 227 0.0 3.2 0.03 0.46 0.05 92 1010.2
20260507005705 9 227 0.0 3.2 0.00 0.43 0.05 92 1010.2
20260507004705 9 227 0.0 1.6 0.00 0.43 0.05 92 1010.2
20260507004205 9 227 0.0 3.2 0.00 0.43 0.05 92 1010.2
20260507003204 9 227 1.6 4.8 0.00 0.43 0.05 92 1010.1
20260507002704 9 227 1.6 4.8 0.00 0.43 0.05 92 1010.1
20260507001704 9 227 1.6 4.8 0.00 0.43 0.05 91 1010.1
20260507001204 9 227 1.6 8.0 0.00 0.43 0.05 91 1010.1
20260507000704 9 227 3.2 8.0 0.00 0.43 0.05 91 1010.1
20260507000205 9 227 1.6 8.0 0.00 0.43 0.05 91 1010.0
20260506235704 9 192 1.6 4.8 0.03 0.43 0.05 92 1010.1
20260506235204 10 193 1.6 4.8 0.03 0.43 0.05 92 1010.1
20260506234704 10 193 1.6 4.8 0.03 0.43 0.05 92 1010.1
20260506234204 10 193 1.6 4.8 0.03 0.46 0.05 92 1010.1
20260506233704 10 193 1.6 6.4 0.03 0.46 0.05 91 1010.2
20260506233204 10 193 1.6 6.4 0.03 0.46 0.05 91 1010.2
20260506232732 10 193 1.6 6.4 0.05 0.46 0.05 91 1010.2
20260506231705 10 215 4.8 16.1 0.05 0.46 0.05 91 1010.2
20260506231205 10 209 6.4 16.1 0.05 0.46 0.05 90 1010.3
20260506230705 10 222 6.4 16.1 0.05 0.46 0.05 90 1010.3
20260506230205 10 223 6.4 19.3 0.05 0.46 0.05 90 1010.2
20260506225705 10 238 6.4 19.3 0.03 0.43 0.03 90 1010.2
20260506223706 10 222 3.2 9.7 0.03 0.43 0.03 91 1010.1
20260506223205 10 194 4.8 11.3 0.03 0.43 0.03 91 1010.1
20260506222704 10 192 4.8 11.3 0.00 0.43 0.00 91 1010.0
20260506222204 10 236 4.8 11.3 0.00 0.43 0.00 91 1010.1
20260506221705 10 207 4.8 11.3 0.00 0.43 0.00 91 1010.0
20260506221204 10 224 4.8 8.0 0.00 0.43 0.00 91 1009.9
20260506220205 10 190 3.2 8.0 0.00 0.43 0.43 92 1009.9
20260506215704 10 205 1.6 8.0 0.00 0.43 0.43 92 1009.8
20260506215204 10 198 3.2 6.4 0.03 0.43 0.43 92 1009.7
20260506214704 10 197 1.6 6.4 0.03 0.43 0.43 92 1009.7
20260506214205 10 200 1.6 6.4 0.03 0.43 0.43 92 1009.7
20260506213704 10 201 1.6 8.0 0.05 0.43 0.43 92 1009.6
20260506213204 10 201 3.2 8.0 0.05 0.43 0.43 92 1009.6
20260506212705 10 206 3.2 8.0 0.05 0.43 0.43 92 1009.6
20260506212205 10 205 3.2 8.0 0.05 0.43 0.43 92 1009.4
20260506211704 10 200 1.6 8.0 0.05 0.43 0.43 92 1009.4
20260506210705 10 211 3.2 9.7 0.08 0.43 0.43 92 1009.3
20260506205705 10 184 3.2 8.0 0.08 0.41 0.41 92 1009.3
20260506205205 10 209 3.2 9.7 0.10 0.41 0.41 92 1009.3
20260506204705 10 197 3.2 9.7 0.13 0.41 0.41 92 1009.3
20260506204205 10 215 3.2 8.0 0.13 0.38 0.38 92 1009.3
20260506203704 10 217 1.6 8.0 0.15 0.38 0.38 92 1009.2
20260506203204 10 182 1.6 8.0 0.15 0.38 0.38 92 1009.3
20260506202705 10 193 1.6 6.4 0.15 0.38 0.38 92 1009.2
20260506202205 10 196 1.6 9.7 0.15 0.38 0.38 92 1009.2
20260506201705 10 198 1.6 9.7 0.15 0.36 0.36 92 1009.2
20260506201205 10 200 3.2 9.7 0.15 0.33 0.33 92 1009.2
20260506200705 10 213 3.2 9.7 0.15 0.33 0.33 92 1009.2
20260506200205 11 202 3.2 8.0 0.15 0.33 0.33 92 1009.2
20260506195705 11 211 3.2 8.0 0.15 0.30 0.30 92 1009.1
20260506195205 11 184 3.2 8.0 0.15 0.30 0.30 92 1009.1
20260506193704 11 189 3.2 8.0 0.13 0.23 0.23 92 1008.8
20260506193205 11 208 3.2 8.0 0.13 0.23 0.23 92 1008.7
20260506192705 11 198 3.2 11.3 0.13 0.23 0.23 91 1008.6
20260506192205 11 194 3.2 11.3 0.13 0.23 0.23 91 1008.5
20260506191705 11 209 4.8 11.3 0.10 0.20 0.20 91 1008.4
20260506191205 11 182 4.8 11.3 0.08 0.18 0.18 91 1008.4
20260506190705 11 182 4.8 11.3 0.10 0.18 0.18 91 1008.3
20260506190205 11 184 3.2 9.7 0.08 0.15 0.15 91 1008.2
20260506185204 11 206 4.8 11.3 0.08 0.15 0.15 91 1008.0
20260506184704 11 186 3.2 9.7 0.08 0.15 0.15 90 1007.9
20260506183704 11 213 3.2 9.7 0.05 0.13 0.13 90 1007.8
20260506183204 12 192 3.2 9.7 0.05 0.10 0.10 90 1007.8
20260506182705 12 186 3.2 8.0 0.05 0.10 0.10 90 1007.7
20260506181705 12 188 1.6 8.0 0.05 0.10 0.10 89 1007.6
20260506181205 12 203 1.6 9.7 0.05 0.13 0.10 89 1007.6
20260506180705 12 184 3.2 9.7 0.03 0.10 0.08 89 1007.6
20260506180204 12 175 3.2 6.4 0.03 0.13 0.08 88 1007.6
20260506175204 12 208 1.6 6.4 0.00 0.15 0.05 88 1007.6
20260506174704 12 213 1.6 4.8 0.00 0.15 0.05 88 1007.5
20260506174205 12 219 1.6 6.4 0.00 0.15 0.05 87 1007.4
20260506173704 12 219 1.6 9.7 0.00 0.15 0.05 87 1007.3
20260506173204 12 219 3.2 9.7 0.00 0.15 0.05 87 1007.4
20260506172704 12 221 3.2 9.7 0.00 0.15 0.05 87 1007.4
20260506172205 12 224 3.2 8.0 0.00 0.15 0.05 87 1007.4
20260506171204 12 226 1.6 8.0 0.00 0.15 0.05 87 1007.3
20260506170705 12 226 3.2 8.0 0.00 0.15 0.05 87 1007.3
20260506165205 12 219 1.6 8.0 0.00 0.15 0.05 87 1007.2
20260506164204 12 225 3.2 11.3 0.00 0.15 0.05 86 1007.3
20260506163704 13 288 4.8 12.9 0.00 0.15 0.05 86 1007.3
20260506163204 12 275 6.4 12.9 0.00 0.15 0.05 85 1007.3
20260506162705 13 234 4.8 12.9 0.00 0.15 0.05 84 1007.3
20260506162220 13 213 4.8 12.9 0.00 0.15 0.05 84 1007.3
20260506161705 13 233 4.8 17.7 0.00 0.15 0.05 84 1007.3
20260506161207 13 237 6.4 17.7 0.00 0.15 0.05 84 1007.2
20260506160705 13 224 6.4 17.7 0.00 0.15 0.05 84 1007.2
20260506160232 13 245 4.8 11.3 0.00 0.15 0.05 85 1007.1
20260506155732 13 281 4.8 11.3 0.00 0.15 0.05 85 1007.1
20260506155204 13 218 4.8 11.3 0.00 0.15 0.05 85 1007.1
20260506154704 13 229 4.8 9.7 0.00 0.15 0.05 85 1007.1
20260506154205 13 227 4.8 9.7 0.00 0.15 0.05 85 1007.0
20260506153204 13 221 4.8 12.9 0.00 0.15 0.05 86 1007.0
20260506152704 13 243 6.4 12.9 0.00 0.15 0.05 85 1007.0
20260506152205 13 298 6.4 12.9 0.00 0.18 0.05 84 1006.9
20260506151704 13 281 6.4 17.7 0.00 0.18 0.05 85 1006.9
20260506151204 13 275 8.0 17.7 0.00 0.20 0.05 85 1006.9
20260506150705 13 221 8.0 17.7 0.00 0.20 0.05 84 1006.9
20260506150204 13 289 8.0 19.3 0.00 0.20 0.05 85 1006.8
20260506145704 13 285 8.0 20.9 0.00 0.20 0.05 85 1006.7
20260506145204 13 291 9.7 22.5 0.00 0.20 0.05 86 1006.6
20260506144707 13 330 11.3 25.7 0.03 0.20 0.05 86 1006.5
20260506144204 13 288 12.9 25.7 0.03 0.20 0.05 84 1006.5
20260506143704 13 326 14.5 25.7 0.03 0.20 0.05 84 1006.4
20260506143204 13 271 14.5 22.5 0.03 0.20 0.05 83 1006.5
20260506142704 13 290 12.9 37.0 0.03 0.23 0.05 82 1006.5
20260506142204 13 270 14.5 37.0 0.03 0.23 0.05 82 1006.6
20260506141705 13 284 17.7 37.0 0.03 0.23 0.05 81 1006.6
20260506141204 14 304 17.7 32.2 0.03 0.25 0.05 78 1006.5
20260506140705 16 281 11.3 30.6 0.03 0.28 0.05 77 1006.5